Regional Weather Roundup
Issued by NWS San Angelo, TX

Home | Current Version | Previous Version | Text Only | Print | Product List | Glossary On
Versions: 1 2 3 4 5 6 7 8 9 10 11 12 13 14 15 16 17 18 19 20 21 22 23 24 25 26 27 28 29 30 31 32 33 34 35 36 37 38 39 40 41 42 43 44 45 46 47 48 49 50
000
ASUS44 KSJT 230602
RWRSJT
WEST CENTRAL TEXAS REGIONAL WEATHER ROUNDUP
NATIONAL WEATHER SERVICE SAN ANGELO TX
1200 AM CST SUN NOV 23 2014

NOTE: "FAIR" INDICATES FEW OR NO CLOUDS BELOW 12,000 FEET WITH NO
SIGNIFICANT WEATHER AND/OR OBSTRUCTIONS TO VISIBILITY.

TXZ049-054-064>066-071>073-076>078-098-099-113-114-127-128-139-140-
154-155-168>170-230700
...LOCATIONS ACROSS WEST CENTRAL TEXAS...

CITY           SKY/WX    TMP DP  RH WIND       PRES   REMARKS
SAN ANGELO     CLEAR     50  49  96 S3        29.75F
ABILENE        MOCLDY    53  51  93 S8        29.72F
DYESS AFB      CLEAR     53  50  90 S14       29.70F
JUNCTION       PTCLDY    55  53  93 NW3       29.77F
SWEETWATER     NOT AVBL
BROWNWOOD      NOT AVBL
COLEMAN        NOT AVBL
SONORA         NOT AVBL
OZONA          NOT AVBL
BRADY          NOT AVBL
$$

TEXAS PANHANDLE/OKLAHOMA PANHANDLE

CITY           SKY/WX    TMP DP  RH WIND       PRES   REMARKS
AMARILLO       CLEAR     40  30  67 S9        29.59F WCI  34
BORGER         CLEAR     47  42  83 S13       29.56F
CANADIAN       PTCLDY    52  50  93 S14       29.58F
DALHART        CLOUDY    35  19  52 SW5       29.56F WCI  31
DUMAS            N/A     40  19  42 SW14      29.54F WCI  33
GUYMON         NOT AVBL
HEREFORD       PTCLDY    53  22  30 S23G32    29.62F
PAMPA          NOT AVBL
PERRYTON       NOT AVBL
$$

SOUTHERN PANHANDLE/SOUTH PLAINS/ROLLING PLAINS

CITY           SKY/WX    TMP DP  RH WIND       PRES   REMARKS
LUBBOCK        CLEAR     45  30  55 SW9       29.68F
SNYDER         NOT AVBL
CHILDRESS      PTCLDY    51  50  96 S13       29.64F
SEMINOLE       NOT AVBL
$$

PERMIAN BASIN

CITY           SKY/WX    TMP DP  RH WIND       PRES   REMARKS
MIDLAND        CLEAR     52  38  58 W12       29.77F
ODESSA         CLEAR     53  33  46 W10       29.78F
WINK           CLEAR     47  34  60 SW6       29.78F
$$

FAR WEST/SOUTHWEST MOUNTAINS/TRANS PECOS

CITY           SKY/WX    TMP DP  RH WIND       PRES   REMARKS
ALPINE         CLEAR     53  33  46 W18G25    29.95F
DRYDEN           N/A     53  39  59 W9        29.80F
EL PASO        CLEAR     56  19  23 SW23      29.90R
FORT STOCKTON  CLEAR     52  37  56 SW13      29.83F
GUADALUPE PASS NOT AVBL
MARFA          CLEAR     45  34  65 W7        29.96F
PECOS          NOT AVBL
$$

DALLAS/FORT WORTH METROPLEX

CITY           SKY/WX    TMP DP  RH WIND       PRES   REMARKS
DFW AIRPORT    CLOUDY    52  52 100 E5        29.66F
FTW MEACHAM    MOCLDY    56  53  90 W3        29.66F
DAL-EXECUTIVE  CLOUDY    58  54  86 SE3       29.67F
GRAND PRAIRIE  MOCLDY    55  55 100 CALM      29.69F
ADDISON        NOT AVBL
MESQUITE       CLOUDY    58  57  97 SE3       29.69F
LANCASTER      CLOUDY    56  55  93 E7        29.68F
$$

NORTH CENTRAL TEXAS

CITY           SKY/WX    TMP DP  RH WIND       PRES   REMARKS
SHRMAN/DENISON MOCLDY    59  59 100 SE10      29.71F
GAINESVILLE    NOT AVBL
BRIDGEPORT     FOG       52  52 100 CALM      29.70F VSB 3/4
DENTON         MOCLDY    56  55  97 S9        29.68F
WAXAHACHIE     CLOUDY    56  56 100 E3        29.67F
GRANBURY       NOT AVBL
$$

WESTERN NORTH TEXAS

CITY           SKY/WX    TMP DP  RH WIND       PRES   REMARKS
WICHITA FALLS  FOG       47  45  93 SE8       29.66F VSB 1
VERNON         NOT AVBL
BRECKENRIDGE   NOT AVBL
COMANCHE       PTCLDY    53  53 100 SW7       29.72F
$$

CENTRAL AND SOUTH CENTRAL TEXAS

CITY           SKY/WX    TMP DP  RH WIND       PRES   REMARKS
AUSTIN/BERGSTM CLOUDY    58  57  97 N9        29.70R
WACO           CLOUDY    57  55  93 SE7       29.67F
HILLSBORO      NOT AVBL
TEMPLE         CLOUDY    57  52  82 NE15      29.68F
KILLEEN-GRAY   CLOUDY    56  55  96 SE5       29.69F
FORT HOOD      CLOUDY    58  55  90 E5        29.68F
GEORGETOWN     CLOUDY    57  55  94 CALM      29.71R
LAGO VISTA     NOT AVBL
SAN MARCOS     CLOUDY    61  61 100 NW6       29.75R
NEW BRAUNFELS  CLOUDY    63  50  63 N9        29.73R
RANDOLPH AFB   MOCLDY    62  57  85 N10       29.73S
SAN ANTONIO    MOCLDY    62  57  83 N7        29.73R
STINSON        PTCLDY    56  53  90 S7        29.73F
PLEASANTON     NOT AVBL
LA GRANGE      CLOUDY    62  61  97 CALM      29.67F
GIDDINGS       NOT AVBL
$$

EAST TEXAS

CITY           SKY/WX    TMP DP  RH WIND       PRES   REMARKS
PARIS          CLOUDY    59  57  94 SE13      29.72R
CLARKSVILLE    NOT AVBL
TYLER          LGT RAIN  61  59  93 SE9       29.74F
LONGVIEW       LGT RAIN  61  60  97 CALM      29.77F FOG
PALESTINE      NOT AVBL
NACOGDOCHES    CLOUDY    63  61  94 E3        29.75F
$$

TEXAS HILL COUNTRY AND EDWARDS PLATEAU

CITY           SKY/WX    TMP DP  RH WIND       PRES   REMARKS
LLANO          NOT AVBL
HORSESHOE BAY  CLOUDY    58  58 100 SE6       29.74F
KERRVILLE      NOT AVBL
FREDERICKSBRG  NOT AVBL
ROCKSPRINGS    NOT AVBL
HONDO          CLEAR     48  48 100 CALM      29.77R
UVALDE         CLEAR     55  49  79 CALM      29.78S
DEL RIO        CLEAR     52  50  93 CALM      29.77F
$$

SOUTHEAST TEXAS

CITY           SKY/WX    TMP DP  RH WIND       PRES   REMARKS
COLLEGE STN    RAIN      59  58  96 NE15      29.67F
CALDWELL       NOT AVBL
CROCKETT       NOT AVBL
BRENHAM        LGT RAIN  61  60  96 NE6       29.71F
HUNTSVILLE     CLOUDY    65  63  93 W10       29.74S
CONROE         LGT RAIN  64  62  93 S10       29.73F
HOUSTON BUSH   LGT RAIN  65  63  93 S5        29.73R
HOUSTON HOBBY  TSTM      65  64  97 E6        29.76R
PERLAND        TSTM      65  63  93 E7        29.77R
WHARTON        NOT AVBL
$$

THE UPPER TEXAS COAST

CITY           SKY/WX    TMP DP  RH WIND       PRES   REMARKS
ORANGE         NOT AVBL
PORT ARTHUR    HVY RAIN  65  64  97 SE3       29.76S FOG
GALVESTON      TSTM      63  63 100 NE7       29.79R FOG
ANGLETON       HVY RAIN  63  61  93 SW6       29.75F
BAY CITY       RAIN      64  61  91 W15G22    29.77S
$$

TEXAS COASTAL BEND, RIO GRANDE PLAINS DEEP SOUTH TEXAS

CITY           SKY/WX    TMP DP  RH WIND       PRES   REMARKS
VICTORIA       CLOUDY    62  58  86 S6        29.70F
BEEVILLE       FAIR      61  58  89 S7        29.72F
ROCKPORT       CLOUDY    61  59  93 W7        29.72R
PORT ARANSAS   NOT AVBL
PORT LAVACA    CLOUDY    63  59  88 W5G10     29.71R
CORPUS CHRISTI CLOUDY    65  59  81 NW8       29.74F
KINGSVILLE NAS NOT AVBL
COTULLA        CLEAR     58  53  84 NW7       29.77R
LAREDO         CLEAR     58  56  93 SW3       29.81S
BROWNSVILLE    CLOUDY    66  64  93 N18G26    29.80R
PORT ISABEL    TSTM      64  62  93 NW28G37   29.80R
HEBBRONVILLE   NOT AVBL
MCALLEN        LGT RAIN  64  63  96 S3        29.78R
WESLACO        NOT AVBL
FALFURRIAS     CLOUDY    63  61  93 NW8       29.78R
EDINBURG       RAIN      65  61  87 S9        29.75F
$$


USA.gov is the U.S. government's official web portal to all federal, state and local government web resources and services.